{"data":{"norad_id":66650,"intl_designator":"2025-274A","name":"BEE-1000","alt_names":[],"object_type":"PAYLOAD","status":"ACTIVE","operator":null,"country":"SKOR","launch_date":"2025-11-26","launch_site_code":"NSC","launch_vehicle":null,"mission":null,"orbit_class":"UNKNOWN","rcs_meters":null,"size_class":null,"mass_kg":null,"dimensions":null,"purposes":[],"wikipedia_slug":null,"has_3d_model":false,"image_url":null,"decayed_at":null,"tle_current":{"epoch":"2026-09-20T05:56:25.070496Z","epoch_age_seconds":142773,"freshness":"FRESH","line1":"1 66650U 25274A   26263.24751239  .00001574  00000+0  15542-3 0  9991","line2":"2 66650  97.7482 190.8920 0012879  43.9628 316.2614 14.93315856 44398","mean_motion":14.93315856,"eccentricity":0.0012879,"inclination_deg":97.7482,"raan_deg":190.892,"arg_perigee_deg":43.9628,"mean_anomaly_deg":316.2614,"bstar":0.00015542,"rev_number":4439,"period_min":96.429700000453,"perigee_km":578.63390916021,"apogee_km":596.5762676315,"semimajor_km":6965.7420883959,"source":"CELESTRAK","updated_at":"2026-09-21T09:00:16.114795Z"}}}